| time (UTC) | temp F | wind direction | speed MPH | gust MPH | rain 1hr in | rain 24hr in | rain mn in | humidity % | barometer mb |
| 20260510093507 | 66 | 353 | 0.0 | 1.0 | 0.00 | 2.51 | 0.00 | 98 | 1013.5 |
| 20260510093016 | 66 | 337 | 0.0 | 1.0 | 0.00 | 2.51 | 0.00 | 98 | 1013.5 |
| 20260510092504 | 66 | 12 | 0.0 | 2.0 | 0.00 | 2.51 | 0.00 | 98 | 1013.5 |
| 20260510092007 | 66 | 13 | 0.0 | 2.0 | 0.00 | 2.51 | 0.00 | 98 | 1013.6 |
| 20260510091518 | 66 | 351 | 0.0 | 1.0 | 0.00 | 2.51 | 0.00 | 98 | 1013.7 |
| 20260510091008 | 66 | 147 | 0.0 | 1.0 | 0.00 | 2.51 | 0.00 | 98 | 1013.7 |
| 20260510090508 | 66 | 148 | 0.0 | 1.0 | 0.00 | 2.51 | 0.00 | 98 | 1013.8 |
| 20260510090020 | 66 | 323 | 0.0 | 0.0 | 0.00 | 2.51 | 0.00 | 98 | 1013.8 |
| 20260510085506 | 66 | 323 | 0.0 | 1.0 | 0.00 | 2.51 | 0.00 | 97 | 1013.7 |
| 20260510085008 | 66 | 303 | 0.0 | 1.0 | 0.00 | 2.51 | 0.00 | 98 | 1013.6 |
| 20260510084523 | 66 | 302 | 0.0 | 1.0 | 0.00 | 2.51 | 0.00 | 98 | 1013.6 |
| 20260510084004 | 66 | 302 | 0.0 | 1.0 | 0.00 | 2.51 | 0.00 | 98 | 1013.7 |
| 20260510083503 | 66 | 302 | 0.0 | 0.0 | 0.00 | 2.51 | 0.00 | 98 | 1013.7 |
| 20260510083012 | 66 | 186 | 0.0 | 0.0 | 0.00 | 2.51 | 0.00 | 98 | 1013.7 |
| 20260510082502 | 66 | 186 | 0.0 | 1.0 | 0.00 | 2.51 | 0.00 | 98 | 1013.7 |
| 20260510082007 | 66 | 186 | 0.0 | 1.0 | 0.00 | 2.52 | 0.00 | 98 | 1013.7 |
| 20260510081531 | 66 | 340 | 0.0 | 1.0 | 0.00 | 2.52 | 0.00 | 98 | 1013.6 |
| 20260510081005 | 66 | 338 | 0.0 | 0.0 | 0.00 | 2.52 | 0.00 | 98 | 1013.6 |
| 20260510080506 | 66 | 338 | 0.0 | 0.0 | 0.00 | 2.55 | 0.00 | 98 | 1013.5 |
| 20260510080017 | 66 | 338 | 0.0 | 0.0 | 0.00 | 2.61 | 0.00 | 98 | 1013.4 |
| 20260510075507 | 66 | 338 | 0.0 | 0.0 | 0.00 | 2.61 | 0.00 | 98 | 1013.4 |
| 20260510075009 | 65 | 338 | 0.0 | 0.0 | 0.00 | 2.62 | 0.00 | 97 | 1013.4 |
| 20260510074525 | 65 | 338 | 0.0 | 0.0 | 0.00 | 2.63 | 0.00 | 97 | 1013.4 |
| 20260510074011 | 65 | 338 | 0.0 | 0.0 | 0.00 | 2.63 | 0.00 | 97 | 1013.4 |
| 20260510073509 | 65 | 338 | 0.0 | 0.0 | 0.00 | 2.67 | 0.00 | 97 | 1013.4 |
| 20260510073025 | 66 | 338 | 0.0 | 0.0 | 0.00 | 2.69 | 0.00 | 97 | 1013.3 |
| 20260510072504 | 66 | 338 | 0.0 | 1.0 | 0.00 | 2.70 | 0.00 | 97 | 1013.2 |
| 20260510072004 | 66 | 338 | 0.0 | 1.0 | 0.00 | 2.70 | 0.00 | 97 | 1013.3 |
| 20260510071509 | 66 | 338 | 0.0 | 2.0 | 0.00 | 2.71 | 0.00 | 97 | 1013.2 |
| 20260510070508 | 66 | 289 | 0.0 | 1.0 | 0.00 | 2.73 | 0.00 | 97 | 1013.1 |
| 20260510070021 | 66 | 289 | 0.0 | 1.0 | 0.00 | 2.73 | 0.00 | 97 | 1013.0 |
| 20260510065506 | 66 | 289 | 0.0 | 1.0 | 0.00 | 2.73 | 0.00 | 97 | 1013.0 |
| 20260510065009 | 66 | 289 | 0.0 | 1.0 | 0.00 | 2.74 | 0.00 | 97 | 1013.1 |
| 20260510064522 | 66 | 289 | 0.0 | 0.0 | 0.00 | 2.74 | 0.00 | 97 | 1013.1 |
| 20260510064005 | 66 | 289 | 0.0 | 1.0 | 0.00 | 2.74 | 0.00 | 97 | 1013.2 |
| 20260510063506 | 66 | 289 | 0.0 | 1.0 | 0.00 | 2.74 | 0.00 | 97 | 1013.3 |
| 20260510063025 | 66 | 289 | 0.0 | 1.0 | 0.00 | 2.74 | 0.00 | 97 | 1013.2 |
| 20260510062513 | 66 | 288 | 0.0 | 0.0 | 0.00 | 2.75 | 0.00 | 97 | 1013.2 |
| 20260510062015 | 66 | 288 | 0.0 | 0.0 | 0.00 | 2.75 | 0.00 | 97 | 1013.4 |
| 20260510061529 | 66 | 288 | 0.0 | 0.0 | 0.00 | 2.75 | 0.00 | 97 | 1013.5 |
| 20260510061007 | 66 | 288 | 0.0 | 0.0 | 0.00 | 2.75 | 0.00 | 97 | 1013.5 |
| 20260510060506 | 66 | 288 | 0.0 | 0.0 | 0.00 | 2.75 | 0.00 | 97 | 1013.7 |
| 20260510060012 | 66 | 288 | 0.0 | 0.0 | 0.00 | 2.75 | 0.00 | 97 | 1013.7 |
| 20260510055506 | 66 | 288 | 0.0 | 0.0 | 0.00 | 2.75 | 0.00 | 97 | 1013.6 |
| 20260510055010 | 66 | 288 | 0.0 | 0.0 | 0.00 | 2.75 | 0.00 | 97 | 1013.6 |
| 20260510054520 | 66 | 288 | 0.0 | 0.0 | 0.00 | 2.75 | 0.00 | 97 | 1013.7 |
| 20260510054008 | 66 | 288 | 0.0 | 0.0 | 0.00 | 2.75 | 0.00 | 97 | 1013.6 |
| 20260510053507 | 67 | 288 | 0.0 | 0.0 | 0.00 | 2.75 | 0.00 | 97 | 1013.5 |
| 20260510053021 | 67 | 288 | 0.0 | 0.0 | 0.00 | 2.75 | 0.00 | 97 | 1013.7 |
| 20260510052511 | 66 | 288 | 0.0 | 0.0 | 0.00 | 2.75 | 0.00 | 97 | 1013.7 |
| 20260510052009 | 66 | 288 | 0.0 | 0.0 | 0.00 | 2.75 | 0.00 | 97 | 1013.7 |
| 20260510051532 | 66 | 288 | 0.0 | 0.0 | 0.00 | 2.75 | 0.00 | 97 | 1013.7 |
| 20260510051008 | 66 | 288 | 0.0 | 0.0 | 0.00 | 2.75 | 0.00 | 97 | 1013.6 |
| 20260510050509 | 66 | 288 | 0.0 | 1.0 | 0.00 | 2.79 | 0.00 | 97 | 1013.5 |
| 20260510050027 | 66 | 288 | 0.0 | 1.0 | 0.00 | 2.81 | 0.00 | 97 | 1013.5 |
| 20260510045506 | 66 | 288 | 0.0 | 0.0 | 0.00 | 2.84 | 2.81 | 97 | 1013.6 |
| 20260510045003 | 66 | 288 | 0.0 | 0.0 | 0.00 | 2.86 | 2.81 | 97 | 1013.7 |
| 20260510044514 | 66 | 288 | 0.0 | 0.0 | 0.00 | 2.90 | 2.81 | 97 | 1013.7 |
| 20260510043508 | 67 | 288 | 0.0 | 0.0 | 0.00 | 2.94 | 2.81 | 97 | 1013.4 |
| 20260510043022 | 67 | 288 | 0.0 | 0.0 | 0.00 | 2.95 | 2.81 | 97 | 1013.6 |
| 20260510042510 | 67 | 288 | 0.0 | 0.0 | 0.00 | 2.95 | 2.81 | 97 | 1013.6 |
| 20260510042008 | 67 | 288 | 0.0 | 0.0 | 0.00 | 2.96 | 2.81 | 97 | 1013.5 |
| 20260510041523 | 67 | 332 | 0.0 | 0.0 | 0.00 | 2.96 | 2.81 | 97 | 1013.3 |
| 20260510041010 | 67 | 332 | 0.0 | 0.0 | 0.00 | 2.96 | 2.81 | 97 | 1013.3 |
| 20260510040510 | 67 | 332 | 0.0 | 1.0 | 0.00 | 2.96 | 2.81 | 97 | 1013.3 |
| 20260510040026 | 67 | 332 | 0.0 | 1.0 | 0.00 | 2.96 | 2.81 | 97 | 1013.3 |
| 20260510035508 | 67 | 332 | 0.0 | 0.0 | 0.00 | 2.96 | 2.81 | 97 | 1013.4 |
| 20260510035013 | 67 | 332 | 0.0 | 1.0 | 0.00 | 2.96 | 2.81 | 97 | 1013.4 |
| 20260510034525 | 67 | 332 | 0.0 | 1.0 | 0.00 | 2.96 | 2.81 | 97 | 1013.5 |
| 20260510034007 | 67 | 332 | 0.0 | 1.0 | 0.00 | 2.96 | 2.81 | 97 | 1013.4 |
| 20260510033504 | 67 | 332 | 0.0 | 1.0 | 0.00 | 2.96 | 2.81 | 97 | 1013.6 |
| 20260510033016 | 67 | 334 | 0.0 | 1.0 | 0.00 | 2.96 | 2.81 | 97 | 1013.5 |
| 20260510032511 | 67 | 334 | 0.0 | 1.0 | 0.00 | 2.96 | 2.81 | 97 | 1013.7 |
| 20260510032009 | 67 | 183 | 0.0 | 2.0 | 0.00 | 2.96 | 2.81 | 97 | 1013.6 |
| 20260510031531 | 67 | 183 | 0.0 | 2.0 | 0.00 | 2.96 | 2.81 | 97 | 1013.7 |
| 20260510031007 | 67 | 213 | 0.0 | 1.0 | 0.00 | 2.96 | 2.81 | 97 | 1013.7 |
| 20260510030509 | 67 | 308 | 0.0 | 0.0 | 0.00 | 2.96 | 2.81 | 97 | 1013.7 |
| 20260510030028 | 68 | 308 | 0.0 | 2.0 | 0.00 | 2.96 | 2.81 | 97 | 1013.9 |
| 20260510025509 | 67 | 308 | 0.0 | 2.0 | 0.00 | 2.96 | 2.81 | 97 | 1013.7 |
| 20260510025005 | 67 | 4 | 0.0 | 4.0 | 0.00 | 2.96 | 2.81 | 97 | 1013.4 |
| 20260510024507 | 67 | 170 | 0.0 | 4.0 | 0.00 | 2.96 | 2.81 | 97 | 1012.9 |
| 20260510023503 | 67 | 189 | 1.0 | 3.0 | 0.00 | 2.96 | 2.81 | 97 | 1013.0 |
| 20260510023014 | 67 | 183 | 0.0 | 2.0 | 0.00 | 2.96 | 2.81 | 97 | 1013.1 |
| 20260510022503 | 67 | 184 | 0.0 | 2.0 | 0.00 | 2.96 | 2.81 | 97 | 1013.1 |
| 20260510022008 | 67 | 178 | 0.0 | 0.0 | 0.00 | 2.96 | 2.81 | 97 | 1013.2 |
| 20260510021528 | 67 | 179 | 0.0 | 0.0 | 0.00 | 2.96 | 2.81 | 97 | 1013.3 |
| 20260510021007 | 67 | 179 | 0.0 | 0.0 | 0.00 | 2.96 | 2.81 | 97 | 1013.2 |
| 20260510020507 | 67 | 178 | 0.0 | 0.0 | 0.00 | 2.96 | 2.81 | 97 | 1013.2 |
| 20260510020020 | 67 | 178 | 0.0 | 1.0 | 0.00 | 2.96 | 2.81 | 97 | 1013.3 |
| 20260510015508 | 67 | 178 | 0.0 | 1.0 | 0.00 | 2.96 | 2.81 | 97 | 1013.4 |
| 20260510014523 | 67 | 215 | 0.0 | 1.0 | 0.00 | 2.96 | 2.81 | 97 | 1014.0 |
| 20260510014010 | 67 | 216 | 0.0 | 1.0 | 0.00 | 2.96 | 2.81 | 97 | 1014.1 |
| 20260510013504 | 67 | 216 | 0.0 | 1.0 | 0.00 | 2.96 | 2.81 | 97 | 1014.2 |
| 20260510013008 | 67 | 216 | 0.0 | 1.0 | 0.00 | 2.96 | 2.81 | 97 | 1013.8 |
| 20260510012503 | 67 | 216 | 0.0 | 1.0 | 0.00 | 2.96 | 2.81 | 97 | 1013.7 |
| 20260510011514 | 67 | 213 | 0.0 | 1.0 | 0.00 | 2.96 | 2.81 | 97 | 1013.5 |
| 20260510011009 | 67 | 214 | 0.0 | 3.0 | 0.00 | 2.96 | 2.81 | 97 | 1013.2 |
| 20260510010505 | 67 | 148 | 0.0 | 3.0 | 0.01 | 2.96 | 2.81 | 97 | 1013.0 |
| 20260510010019 | 67 | 148 | 0.0 | 3.0 | 0.04 | 2.96 | 2.81 | 97 | 1012.7 |
| 20260510005008 | 67 | 200 | 0.0 | 3.0 | 0.04 | 2.96 | 2.81 | 97 | 1012.6 |
| 20260510004521 | 67 | 181 | 0.0 | 3.0 | 0.04 | 2.96 | 2.81 | 97 | 1012.5 |
| 20260510004012 | 67 | 221 | 0.0 | 4.0 | 0.04 | 2.96 | 2.81 | 97 | 1012.3 |
| 20260510003028 | 67 | 198 | 1.0 | 3.0 | 0.04 | 2.96 | 2.81 | 97 | 1012.2 |
| 20260510002512 | 67 | 162 | 0.0 | 3.0 | 0.04 | 2.96 | 2.81 | 97 | 1012.0 |
| 20260510002005 | 67 | 217 | 0.0 | 3.0 | 0.05 | 2.96 | 2.81 | 97 | 1012.1 |
| 20260510001510 | 67 | 150 | 0.0 | 3.0 | 0.05 | 2.96 | 2.81 | 97 | 1012.2 |
| 20260510001008 | 67 | 223 | 1.0 | 2.0 | 0.05 | 2.96 | 2.81 | 97 | 1012.2 |
| 20260510000020 | 67 | 94 | 0.0 | 4.0 | 0.02 | 2.93 | 2.77 | 97 | 1012.3 |
| 20260509235008 | 67 | 142 | 0.0 | 2.0 | 0.04 | 2.93 | 2.77 | 97 | 1012.1 |
| 20260509233023 | 67 | 244 | 0.0 | 1.0 | 0.06 | 2.93 | 2.77 | 97 | 1012.3 |
| 20260509231008 | 67 | 161 | 0.0 | 1.0 | 0.06 | 2.94 | 2.76 | 97 | 1012.4 |
| 20260509230508 | 67 | 162 | 0.0 | 1.0 | 0.05 | 2.93 | 2.75 | 97 | 1012.8 |
| 20260509230026 | 67 | 228 | 0.0 | 1.0 | 0.06 | 2.93 | 2.75 | 97 | 1012.6 |
| 20260509225509 | 67 | 228 | 0.0 | 1.0 | 0.05 | 2.92 | 2.74 | 97 | 1012.4 |
| 20260509225009 | 67 | 229 | 0.0 | 1.0 | 0.05 | 2.91 | 2.73 | 97 | 1012.3 |
| 20260509224526 | 67 | 229 | 0.0 | 1.0 | 0.04 | 2.90 | 2.72 | 97 | 1012.4 |
| 20260509224008 | 67 | 229 | 0.0 | 0.0 | 0.04 | 2.90 | 2.72 | 97 | 1012.7 |
| 20260509222508 | 67 | 229 | 0.0 | 1.0 | 0.05 | 2.90 | 2.71 | 97 | 1012.7 |
| 20260509222011 | 67 | 229 | 0.0 | 1.0 | 0.04 | 2.89 | 2.70 | 97 | 1012.5 |
| 20260509221527 | 67 | 229 | 0.0 | 1.0 | 0.04 | 2.90 | 2.70 | 97 | 1012.3 |
| 20260509221009 | 67 | 228 | 0.0 | 1.0 | 0.04 | 2.91 | 2.70 | 97 | 1011.9 |
| 20260509220510 | 67 | 229 | 0.0 | 1.0 | 0.04 | 2.92 | 2.70 | 97 | 1011.6 |
| 20260509220027 | 67 | 203 | 0.0 | 0.0 | 0.03 | 2.92 | 2.69 | 97 | 1012.0 |
| 20260509215511 | 67 | 203 | 0.0 | 0.0 | 0.03 | 2.93 | 2.69 | 97 | 1012.4 |
| 20260509215009 | 67 | 203 | 0.0 | 0.0 | 0.02 | 2.93 | 2.68 | 97 | 1012.4 |
| 20260509214527 | 67 | 203 | 0.0 | 1.0 | 0.02 | 2.94 | 2.68 | 97 | 1012.5 |
| 20260509214010 | 67 | 203 | 0.0 | 1.0 | 0.03 | 2.96 | 2.68 | 96 | 1012.3 |
| 20260509213510 | 67 | 203 | 0.0 | 1.0 | 0.02 | 2.96 | 2.67 | 96 | 1012.2 |
| 20260509213029 | 67 | 207 | 0.0 | 2.0 | 0.03 | 2.97 | 2.67 | 96 | 1012.1 |
| 20260509211521 | 67 | 155 | 0.0 | 1.0 | 0.04 | 2.98 | 2.66 | 97 | 1012.1 |
| 20260509211010 | 67 | 162 | 0.0 | 1.0 | 0.06 | 2.98 | 2.66 | 97 | 1012.1 |
| 20260509210507 | 67 | 181 | 0.0 | 1.0 | 0.07 | 2.99 | 2.66 | 97 | 1012.2 |
| 20260509210029 | 67 | 268 | 0.0 | 1.0 | 0.09 | 2.99 | 2.66 | 96 | 1012.3 |
| 20260509205511 | 67 | 274 | 0.0 | 1.0 | 0.11 | 2.99 | 2.66 | 96 | 1012.4 |
| 20260509204009 | 67 | 186 | 0.0 | 2.0 | 0.17 | 2.99 | 2.65 | 97 | 1011.4 |
| 20260509203506 | 67 | 199 | 0.0 | 1.0 | 0.19 | 3.00 | 2.65 | 97 | 1011.4 |
| 20260509202505 | 66 | 164 | 0.0 | 1.0 | 0.21 | 2.99 | 2.63 | 97 | 1011.9 |
| 20260509200506 | 66 | 175 | 1.0 | 5.0 | 0.32 | 3.01 | 2.59 | 96 | 1012.1 |
| 20260509200024 | 66 | 158 | 0.0 | 5.0 | 0.32 | 2.99 | 2.57 | 96 | 1012.3 |
| 20260509195508 | 66 | 248 | 0.0 | 4.0 | 0.31 | 2.98 | 2.55 | 96 | 1012.1 |
| 20260509195003 | 67 | 187 | 0.0 | 4.0 | 0.31 | 2.98 | 2.53 | 96 | 1012.7 |
| 20260509194509 | 67 | 189 | 0.0 | 4.0 | 0.29 | 2.97 | 2.50 | 96 | 1013.3 |
| 20260509193504 | 67 | 202 | 0.0 | 4.0 | 0.29 | 3.04 | 2.46 | 97 | 1013.1 |
| 20260509193010 | 67 | 167 | 1.0 | 4.0 | 0.29 | 3.11 | 2.44 | 96 | 1013.2 |
| 20260509192508 | 67 | 193 | 0.0 | 4.0 | 0.28 | 3.16 | 2.42 | 96 | 1013.0 |
| 20260509192008 | 67 | 94 | 1.0 | 4.0 | 0.22 | 3.11 | 2.33 | 96 | 1013.9 |
| 20260509191516 | 67 | 238 | 1.0 | 3.0 | 0.18 | 3.08 | 2.30 | 96 | 1014.3 |
| 20260509191007 | 67 | 242 | 0.0 | 4.0 | 0.17 | 3.07 | 2.28 | 96 | 1013.5 |
| 20260509190506 | 67 | 194 | 2.0 | 4.0 | 0.16 | 3.07 | 2.27 | 96 | 1013.4 |
| 20260509185508 | 67 | 276 | 1.0 | 3.0 | 0.13 | 3.05 | 2.24 | 96 | 1013.6 |
| 20260509184533 | 67 | 159 | 0.0 | 2.0 | 0.11 | 3.03 | 2.21 | 96 | 1013.4 |
| 20260509184004 | 67 | 247 | 0.0 | 2.0 | 0.09 | 3.01 | 2.19 | 96 | 1013.7 |
| 20260509183504 | 67 | 264 | 0.0 | 2.0 | 0.08 | 2.99 | 2.17 | 96 | 1012.9 |
| 20260509183009 | 67 | 122 | 0.0 | 2.0 | 0.06 | 2.97 | 2.15 | 96 | 1013.2 |
| 20260509182508 | 67 | 171 | 0.0 | 2.0 | 0.07 | 2.96 | 2.14 | 96 | 1013.4 |
| 20260509182003 | 67 | 168 | 0.0 | 3.0 | 0.06 | 2.94 | 2.11 | 96 | 1013.5 |
| 20260509181008 | 67 | 204 | 1.0 | 4.0 | 0.07 | 2.93 | 2.10 | 96 | 1013.3 |
| 20260509180506 | 67 | 270 | 1.0 | 4.0 | 0.09 | 2.93 | 2.10 | 96 | 1013.2 |
| 20260509175508 | 67 | 188 | 0.0 | 4.0 | 0.12 | 2.93 | 2.10 | 96 | 1013.1 |
| 20260509173508 | 67 | 103 | 1.0 | 5.0 | 0.13 | 2.91 | 2.08 | 97 | 1013.3 |
| 20260509173052 | 67 | 167 | 1.0 | 5.0 | 0.13 | 2.91 | 2.08 | 97 | 1013.4 |
| 20260509172503 | 67 | 172 | 1.0 | 4.0 | 0.12 | 2.89 | 2.07 | 97 | 1013.1 |
| 20260509172006 | 67 | 166 | 2.0 | 4.0 | 0.16 | 2.88 | 2.06 | 97 | 1013.2 |
| 20260509171004 | 66 | 148 | 1.0 | 5.0 | 0.20 | 2.86 | 2.04 | 97 | 1013.1 |
| 20260509170504 | 66 | 228 | 0.0 | 3.0 | 0.19 | 2.84 | 2.02 | 97 | 1013.2 |
| 20260509165507 | 66 | 186 | 1.0 | 4.0 | 0.17 | 2.81 | 1.99 | 97 | 1013.7 |
| 20260509165008 | 66 | 243 | 0.0 | 3.0 | 0.18 | 2.80 | 1.98 | 97 | 1013.6 |
| 20260509164007 | 66 | 162 | 0.0 | 5.0 | 0.20 | 2.79 | 1.97 | 97 | 1013.3 |
| 20260509163511 | 66 | 184 | 2.0 | 5.0 | 0.22 | 2.78 | 1.96 | 97 | 1013.5 |
| 20260509162010 | 66 | 188 | 0.0 | 3.0 | 0.38 | 2.72 | 1.90 | 97 | 1013.6 |
| 20260509161527 | 66 | 231 | 1.0 | 4.0 | 0.34 | 2.67 | 1.85 | 97 | 1013.9 |
| 20260509161005 | 66 | 189 | 1.0 | 4.0 | 0.37 | 2.66 | 1.84 | 97 | 1013.5 |
| 20260509160504 | 66 | 231 | 1.0 | 5.0 | 0.39 | 2.65 | 1.83 | 97 | 1013.3 |
| 20260509160020 | 66 | 94 | 1.0 | 5.0 | 0.40 | 2.65 | 1.83 | 97 | 1013.2 |
| 20260509155504 | 66 | 167 | 1.0 | 5.0 | 0.40 | 2.64 | 1.82 | 97 | 1013.3 |
| 20260509155008 | 66 | 338 | 1.0 | 6.0 | 0.39 | 2.62 | 1.80 | 97 | 1013.4 |
| 20260509154518 | 65 | 144 | 1.0 | 6.0 | 0.39 | 2.60 | 1.78 | 97 | 1013.9 |
| 20260509154007 | 65 | 212 | 2.0 | 5.0 | 0.39 | 2.59 | 1.77 | 97 | 1013.9 |
| 20260509153508 | 65 | 250 | 0.0 | 4.0 | 0.41 | 2.56 | 1.74 | 97 | 1013.8 |
| 20260509153031 | 65 | 182 | 1.0 | 4.0 | 0.39 | 2.52 | 1.70 | 97 | 1013.7 |
| 20260509152507 | 65 | 211 | 0.0 | 2.0 | 0.29 | 2.41 | 1.59 | 97 | 1014.2 |
| 20260509152007 | 65 | 262 | 0.0 | 2.0 | 0.23 | 2.33 | 1.52 | 97 | 1014.3 |
| 20260509151011 | 65 | 139 | 0.0 | 3.0 | 0.19 | 2.29 | 1.47 | 97 | 1013.8 |
| 20260509150509 | 65 | 205 | 0.0 | 4.0 | 0.18 | 2.26 | 1.44 | 97 | 1013.9 |
| 20260509150028 | 65 | 135 | 0.0 | 4.0 | 0.18 | 2.25 | 1.43 | 97 | 1013.4 |
| 20260509145504 | 65 | 193 | 0.0 | 4.0 | 0.18 | 2.24 | 1.42 | 97 | 1013.8 |
| 20260509145004 | 65 | 221 | 1.0 | 3.0 | 0.21 | 2.23 | 1.41 | 97 | 1013.9 |
| 20260509144514 | 65 | 246 | 0.0 | 4.0 | 0.26 | 2.21 | 1.39 | 97 | 1013.3 |
| 20260509144004 | 65 | 329 | 0.0 | 4.0 | 0.25 | 2.20 | 1.38 | 97 | 1013.3 |
| 20260509143506 | 65 | 295 | 0.0 | 3.0 | 0.20 | 2.15 | 1.33 | 97 | 1013.2 |
| 20260509143021 | 65 | 188 | 0.0 | 3.0 | 0.19 | 2.13 | 1.31 | 97 | 1013.1 |
| 20260509142506 | 65 | 285 | 0.0 | 1.0 | 0.18 | 2.11 | 1.30 | 97 | 1013.0 |
| 20260509142007 | 65 | 258 | 0.0 | 1.0 | 0.17 | 2.10 | 1.29 | 97 | 1012.6 |
| 20260509141011 | 65 | 129 | 0.0 | 1.0 | 0.18 | 2.09 | 1.28 | 97 | 1013.1 |
| 20260509140025 | 65 | 233 | 0.0 | 1.0 | 0.15 | 2.07 | 1.25 | 97 | 1013.7 |
| 20260509135507 | 65 | 240 | 0.0 | 2.0 | 0.15 | 2.06 | 1.24 | 97 | 1013.5 |
| 20260509135009 | 65 | 136 | 0.0 | 2.0 | 0.12 | 2.02 | 1.20 | 97 | 1013.5 |
| 20260509134526 | 65 | 69 | 1.0 | 2.0 | 0.07 | 1.95 | 1.13 | 97 | 1013.8 |
| 20260509134008 | 65 | 204 | 0.0 | 2.0 | 0.08 | 1.95 | 1.13 | 97 | 1014.0 |
| 20260509133506 | 65 | 243 | 1.0 | 2.0 | 0.12 | 1.95 | 1.13 | 97 | 1013.5 |
| 20260509133015 | 65 | 262 | 0.0 | 1.0 | 0.13 | 1.94 | 1.12 | 97 | 1012.9 |
| 20260509132508 | 65 | 262 | 0.0 | 2.0 | 0.23 | 1.94 | 1.12 | 96 | 1012.8 |
| 20260509132006 | 65 | 18 | 0.0 | 2.0 | 0.46 | 1.94 | 1.12 | 96 | 1012.7 |
| 20260509131520 | 65 | 150 | 0.0 | 1.0 | 0.73 | 1.93 | 1.11 | 96 | 1013.0 |
| 20260509131007 | 65 | 200 | 0.0 | 1.0 | 0.77 | 1.92 | 1.10 | 96 | 1013.1 |
| 20260509130506 | 65 | 210 | 0.0 | 1.0 | 0.80 | 1.92 | 1.10 | 96 | 1013.4 |
| 20260509130050 | 65 | 210 | 0.0 | 0.0 | 0.80 | 1.92 | 1.10 | 96 | 1013.2 |
| 20260509125510 | 65 | 209 | 0.0 | 1.0 | 0.79 | 1.91 | 1.09 | 96 | 1013.2 |
| 20260509125008 | 65 | 132 | 0.0 | 1.0 | 0.78 | 1.90 | 1.08 | 96 | 1013.0 |
| 20260509124532 | 65 | 132 | 0.0 | 1.0 | 0.76 | 1.88 | 1.05 | 96 | 1013.2 |
| 20260509124008 | 65 | 227 | 0.0 | 8.0 | 0.75 | 1.87 | 1.04 | 96 | 1013.3 |
| 20260509123509 | 65 | 269 | 0.0 | 9.0 | 0.71 | 1.83 | 1.01 | 96 | 1013.1 |
| 20260509123037 | 65 | 340 | 2.0 | 11.0 | 0.69 | 1.81 | 0.99 | 95 | 1012.9 |
| 20260509122505 | 65 | 80 | 2.0 | 11.0 | 0.58 | 1.71 | 0.89 | 94 | 1013.0 |
| 20260509122006 | 66 | 87 | 3.0 | 11.0 | 0.36 | 1.48 | 0.66 | 93 | 1013.2 |
| 20260509121518 | 67 | 165 | 2.0 | 9.0 | 0.08 | 1.20 | 0.38 | 93 | 1013.8 |
| 20260509121005 | 68 | 245 | 1.0 | 18.0 | 0.03 | 1.15 | 0.33 | 91 | 1013.6 |
| 20260509120507 | 70 | 131 | 5.0 | 18.0 | 0.00 | 1.12 | 0.30 | 90 | 1013.1 |
| 20260509120029 | 71 | 307 | 0.0 | 2.0 | 0.00 | 1.12 | 0.30 | 95 | 1011.8 |
| 20260509115505 | 71 | 143 | 0.0 | 2.0 | 0.00 | 1.12 | 0.30 | 95 | 1011.2 |
| 20260509115007 | 70 | 252 | 0.0 | 1.0 | 0.00 | 1.12 | 0.30 | 95 | 1010.9 |
| 20260509114507 | 70 | 257 | 0.0 | 5.0 | 0.00 | 1.12 | 0.30 | 95 | 1010.7 |
| 20260509114004 | 70 | 203 | 1.0 | 5.0 | 0.00 | 1.12 | 0.30 | 95 | 1010.4 |
| 20260509113508 | 70 | 203 | 1.0 | 5.0 | 0.00 | 1.12 | 0.30 | 95 | 1010.4 |
| 20260509113013 | 70 | 139 | 1.0 | 5.0 | 0.00 | 1.12 | 0.30 | 95 | 1010.6 |
| 20260509112504 | 70 | 212 | 0.0 | 3.0 | 0.00 | 1.12 | 0.30 | 95 | 1010.6 |
| 20260509112007 | 70 | 221 | 1.0 | 3.0 | 0.00 | 1.12 | 0.30 | 95 | 1010.3 |
| 20260509111515 | 70 | 213 | 1.0 | 3.0 | 0.00 | 1.12 | 0.30 | 96 | 1010.3 |
| 20260509111006 | 69 | 146 | 1.0 | 3.0 | 0.00 | 1.12 | 0.30 | 96 | 1010.2 |
| 20260509110506 | 69 | 164 | 0.0 | 2.0 | 0.00 | 1.12 | 0.30 | 96 | 1010.2 |
| 20260509110021 | 69 | 155 | 0.0 | 2.0 | 0.00 | 1.12 | 0.30 | 96 | 1010.2 |
| 20260509105506 | 69 | 184 | 0.0 | 4.0 | 0.00 | 1.12 | 0.30 | 96 | 1010.3 |
| 20260509104504 | 69 | 176 | 1.0 | 4.0 | 0.00 | 1.12 | 0.30 | 96 | 1010.3 |
| 20260509104004 | 69 | 195 | 0.0 | 1.0 | 0.00 | 1.12 | 0.30 | 95 | 1010.3 |
| 20260509103503 | 69 | 214 | 0.0 | 2.0 | 0.00 | 1.12 | 0.30 | 95 | 1010.3 |
| 20260509103009 | 69 | 151 | 0.0 | 2.0 | 0.00 | 1.12 | 0.30 | 95 | 1010.3 |
| 20260509102507 | 69 | 138 | 0.0 | 3.0 | 0.00 | 1.12 | 0.30 | 95 | 1010.3 |
| 20260509102007 | 69 | 137 | 0.0 | 3.0 | 0.00 | 1.12 | 0.30 | 95 | 1010.2 |
| 20260509101513 | 69 | 145 | 0.0 | 3.0 | 0.00 | 1.12 | 0.30 | 95 | 1010.1 |
| 20260509101006 | 69 | 143 | 0.0 | 3.0 | 0.00 | 1.12 | 0.30 | 95 | 1009.7 |
| 20260509100505 | 69 | 120 | 1.0 | 3.0 | 0.00 | 1.12 | 0.30 | 94 | 1009.6 |
| 20260509100017 | 69 | 200 | 1.0 | 3.0 | 0.00 | 1.12 | 0.30 | 94 | 1009.5 |
| 20260509095507 | 69 | 191 | 0.0 | 4.0 | 0.00 | 1.12 | 0.30 | 94 | 1009.4 |
| 20260509095007 | 69 | 179 | 0.0 | 4.0 | 0.00 | 1.12 | 0.30 | 94 | 1009.4 |
| 20260509094530 | 69 | 220 | 0.0 | 2.0 | 0.00 | 1.12 | 0.30 | 94 | 1009.5 |
| 20260509094008 | 69 | 198 | 0.0 | 2.0 | 0.00 | 1.12 | 0.30 | 94 | 1009.6 |